User: anonymous   Login
Location: Unspecified
(0.0000°N, 0.0000°E)
Time: 14:23:40
(UTC+02:00)
Language:

Atlas Centaur 2 - Orbit

View from above orbital plane
View from above orbital plane
View from above satellite
View from above satellite

Ground track
Ground track

The orbit data is extracted from the following two-line orbital elements,

1 00694U 63047A   14294.97865019  .00002447  00000-0  31166-3 0  6246
2 00694 030.3605 091.3279 0596693 272.0846 246.3857 13.99982720546668
Epoch (UTC): 21 October 2014 23:29:15
Eccentricity: 0.0596693
inclination: 30.3605°
perigee height: 460 km
apogee height: 1328 km
right ascension of ascending node: 91.3279°
argument of perigee: 272.0846°
revolutions per day: 13.99982720
mean anomaly at epoch: 246.3857°
orbit number at epoch: 54666

The dashed part of the orbit path shows where the satellite is in the earth's shadow,  

DLR